Location: Derby
(52.9213°N, 1.4761°W)
Time: 16:32:57
(UTC+01:00)

Vanguard 1 - Pass Details

Date: 19 May 2025
Orbit: 649 x 3822 km, 34.3° (Epoch: 14 June)

Event Time Altitude Azimuth Distance (km) Brightness Sun altitude
Rises 20:24:59 0° 245° (WSW) 6,792 14.9 4.2°
Reaches altitude 10° 20:31:00 10° 236° (SW) 5,213 14.2 3.4°
Maximum altitude 20:41:23 26° 187° (S) 2,954 12.3 2.0°
Drops below altitude 10° 20:48:05 10° 134° (SE) 3,255 12.1 1.2°
Sets 20:50:50 0° 121° (ESE) 3,895 12.4 0.8°
